Hourly Weather Roundup
Issued by NWS Central Illinois

Home | Current Version | Previous Version | Text Only | Print | Product List | Glossary On
Versions: 1 2 3 4 5 6 7 8 9 10 11 12 13 14 15 16 17 18 19 20 21 22 23 24 25 26 27 28 29 30 31 32 33 34 35 36 37 38 39 40 41 42 43 44 45 46 47 48 49 50
000
NZUS43 KILX 011510
HWRILX

AREA WEATHER ROUNDUP
NATIONAL WEATHER SERVICE, LINCOLN IL
900 AM CST SUN FEB 01 2015


CITY           SKY/WX    TMP DP  RH WIND       PRES   REMARKS
BLOOMINGTON    SNOW      33  33 100 SE12      29.79F VSB 1/2 WCI  24
CHAMPAIGN      SNOW      33  31  92 SE17      29.80F VSB 1/2 WCI  22
DECATUR        SNOW      33  32  96 SE9       29.78F VSB 1/2 WCI  25
FLORA          LGT RAIN  35  34  99 E7        29.82F WCI  29
GALESBURG      LGT SNOW  32  32 100 E7        29.77F WCI  26
JACKSONVILLE   MIX PCPN  35  33  94 CALM      29.74F
LACON          LGT SNOW  32  31  98 E7        29.81F VSB 1   WCI  26
LAWRENCEVILLE  RAIN      36  33  89 E6        29.84F FOG     WCI  31
LITCHFIELD     CLOUDY    33  32  95 SE10      29.75F FOG     WCI  25
$$


CITY           SKY/WX    TMP DP  RH WIND       PRES   REMARKS
LINCOLN        SNOW      34  33  96 E7        29.78F VSB 1/2 WCI  28
MACOMB         CLOUDY    32  32 100 E5        29.78F WCI  28
MATTOON        LGT SNOW  33  30  88 SE15      29.79F FOG     WCI  23
MT CARMEL AP   HVY RAIN  37  34  87 E3        29.83F
OLNEY-NOBLE AP RAIN      34  34 100 CALM      29.84F
PARIS          LGT SNOW  33  32  99 SE10      29.84F WCI  24
PEORIA         LGT SNOW  34  32  92 E9        29.78F VSB 3/4 WCI  27
PONTIAC        SNOW      34  33  99 SE12      29.83F VSB 1/2 WCI  25
RANTOUL        SNOW      34  33  96 E12       29.81F VSB 1/2 WCI  25
ROBINSON       RAIN      33  32  94 E5        29.86S WCI  29
SPRINGFIELD    LGT SNOW  34  32  92 SE7       29.76F FOG     WCI  28
TAYLORVILLE    LGT RAIN  32  32 100 SE9       29.76F WCI  24
$$

...REGIONAL REPORTS...


CITY           SKY/WX    TMP DP  RH WIND       PRES   REMARKS
CHICAGO O`HARE SNOW      29  27  92 NE17      29.92F VSB 1/2 WCI  17
KANKAKEE       SNOW      33  32  99 E9        29.86F VSB 1/2 WCI  25
MOLINE         SNOW      31  29  92 NE23G31   29.81F VSB 1/2 WCI  18
MOUNT VERNON   CLOUDY    36  32  87 NE3       29.80F
PITTSFIELD     LGT SNOW  33  32  96 E3        29.73F
QUINCY         SNOW      33  32  96 E3        29.72F VSB 1/2
ROCKFORD       SNOW      26  22  84 NE21G29   29.94S VSB 1/2 WCI  12
$$


CITY           SKY/WX    TMP DP  RH WIND       PRES   REMARKS
BURLINGTON     CLOUDY    33  32  96 E8        29.75F FOG     WCI  26
CEDAR RAPIDS   LGT SNOW  25  24  96 NE25G32   29.84R VSB 1   WCI   9
DES MOINES     SNOW      31  28  89 NE18G25   29.81R VSB 1/2 WCI  19
KIRKSVILLE     LGT SNOW  33  33 100 NE5       29.72S VSB 1   WCI  29
OTTUMWA        LGT SNOW  32  32 100 NE13      29.76F FOG     WCI  22
ST LOUIS       CLOUDY    37  34  87 SE10      29.74F FOG     WCI  30
$$


CITY           SKY/WX    TMP DP  RH WIND       PRES   REMARKS
TERRE HAUTE    LGT RAIN  33  31  92 E7        29.85F FOG     WCI  27
EVANSVILLE     RAIN      42  34  73 S10       29.82F
INDIANAPOLIS   LGT SNOW  32  28  85 SE6       29.89F FOG     WCI  26
LAFAYETTE      LGT SNOW  32  31  96 E12       29.86F VSB 3/4 WCI  23
MADISON        SNOW      16  11  80 NE20      30.04F VSB 1/2 WCI  -1
MILWAUKEE      SNOW      23  19  85 NE25G32   30.05F VSB 1/4 WCI   7
$$




USA.gov is the U.S. government's official web portal to all federal, state and local government web resources and services.